User: anonymous   Login
Location: Sungai Dangang
(2.7500°N, 113.8333°E)
Time: 00:37:29
(UTC+00:00)
Language:

Cosmos 2360 Rocket - Orbit

View from above orbital plane
View from above orbital plane
View from above satellite
View from above satellite

Ground track
Ground track

The orbit data is extracted from the following two-line orbital elements,

1 25407U 98045B   21213.46909053  .00000109  00000-0  79439-4 0  9995
2 25407  71.0122 115.8874 0005554  59.2280 300.9389 14.15842569189388
Epoch (UTC): 01 August 2021 11:15:29
Eccentricity: 0.0005554
inclination: 71.0122°
perigee height: 835 km
apogee height: 843 km
right ascension of ascending node: 115.8874°
argument of perigee: 59.2280°
revolutions per day: 14.15842569
mean anomaly at epoch: 300.9389°
orbit number at epoch: 18938

The dashed part of the orbit path shows where the satellite is in the earth's shadow,  

DLR